When you browse on this site, cookies collect data to enhance your experience and personalize the content and advertising you see.
Visit our Privacy Policy to learn more. By continuing to use the site, you agree to this use of cookies and data.
  • In Hungary
  • List of Countries
  • For 7 days
  • Water Temperature
  • Weather Map
  • News
  • Weather Widgets
  • user-avatar
    Login

    Hourly Weather Jeziorki

    Today, 24 August, Saturday

    Time Temperature Precipitation Wind Pressure Humidity
    00:00 +18°C° 0 mm 2 mps 761 mmHg 69%
    01:00 +18°C° 0 mm 2 mps 761 mmHg 71%
    02:00 +18°C° 0 mm 2 mps 761 mmHg 74%
    03:00 +17°C° 0 mm 2 mps 761 mmHg 78%
    04:00 +17°C° 0 mm 2 mps 761 mmHg 82%
    05:00 +18°C° 0 mm 2 mps 761 mmHg 80%
    06:00 +19°C° 0 mm 2 mps 761 mmHg 78%
    07:00 +20°C° 0 mm 2 mps 761 mmHg 74%
    08:00 +22°C° 0 mm 3 mps 761 mmHg 67%
    09:00 +25°C° 0 mm 3 mps 761 mmHg 60%
    10:00 +26°C° 0 mm 4 mps 761 mmHg 52%
    11:00 +27°C° 0 mm 4 mps 761 mmHg 50%
    12:00 +28°C° 0 mm 4 mps 760 mmHg 47%
    13:00 +28°C° 0 mm 4 mps 760 mmHg 44%
    14:00 +28°C° 0 mm 4 mps 760 mmHg 44%
    15:00 +28°C° 0 mm 4 mps 760 mmHg 44%
    16:00 +28°C° 0 mm 4 mps 760 mmHg 44%
    17:00 +26°C° 0 mm 4 mps 759 mmHg 49%
    18:00 +25°C° 0 mm 4 mps 759 mmHg 54%
    19:00 +22°C° 0 mm 3 mps 759 mmHg 58%
    20:00 +22°C° 0 mm 3 mps 759 mmHg 59%
    21:00 +21°C° 0 mm 4 mps 759 mmHg 59%
    22:00 +20°C° 0 mm 4 mps 760 mmHg 60%
    23:00 +20°C° 0 mm 4 mps 759 mmHg 61%

    Tomorrow, 25 August, Sunday

    Time Temperature Precipitation Wind Pressure Humidity
    00:00 +19°C° 0 mm 4 mps 759 mmHg 62%
    01:00 +19°C° 0 mm 4 mps 759 mmHg 63%
    02:00 +18°C° 0 mm 4 mps 759 mmHg 65%
    03:00 +18°C° 0 mm 4 mps 759 mmHg 67%
    04:00 +18°C° 0 mm 3 mps 759 mmHg 69%
    05:00 +18°C° 0 mm 4 mps 759 mmHg 69%
    06:00 +19°C° 0 mm 4 mps 759 mmHg 69%
    07:00 +20°C° 0 mm 5 mps 759 mmHg 69%
    08:00 +21°C° 0 mm 5 mps 759 mmHg 64%
    09:00 +23°C° 0 mm 5 mps 759 mmHg 59%
    10:00 +26°C° 0 mm 6 mps 759 mmHg 54%
    11:00 +26°C° 0 mm 6 mps 759 mmHg 51%
    12:00 +27°C° 0 mm 5 mps 759 mmHg 49%
    13:00 +28°C° 0 mm 5 mps 758 mmHg 47%
    14:00 +28°C° 0 mm 5 mps 758 mmHg 47%
    15:00 +28°C° 0 mm 5 mps 758 mmHg 47%
    16:00 +29°C° 0 mm 5 mps 758 mmHg 46%
    17:00 +27°C° 0 mm 4 mps 758 mmHg 51%
    18:00 +25°C° 0 mm 4 mps 757 mmHg 56%
    19:00 +23°C° 0 mm 4 mps 757 mmHg 61%
    20:00 +22°C° 0 mm 4 mps 758 mmHg 63%
    21:00 +22°C° 0 mm 4 mps 758 mmHg 64%
    22:00 +21°C° 0 mm 4 mps 758 mmHg 66%
    23:00 +20°C° 0 mm 4 mps 758 mmHg 68%

    Day after tomorrow, 26 August, Monday

    Time Temperature Precipitation Wind Pressure Humidity
    00:00 +20°C° 0 mm 3 mps 758 mmHg 71%
    01:00 +20°C° 0 mm 3 mps 758 mmHg 73%
    02:00 +19°C° 0 mm 3 mps 757 mmHg 76%
    03:00 +19°C° 0 mm 3 mps 757 mmHg 79%
    04:00 +18°C° 0 mm 3 mps 757 mmHg 81%
    05:00 +19°C° 0 mm 3 mps 757 mmHg 80%
    06:00 +20°C° 0 mm 3 mps 757 mmHg 78%
    07:00 +20°C° 0 mm 3 mps 757 mmHg 76%
    08:00 +22°C° 0 mm 4 mps 757 mmHg 71%
    09:00 +25°C° 0 mm 4 mps 757 mmHg 66%
    10:00 +27°C° 0 mm 4 mps 757 mmHg 60%
    11:00 +28°C° 0 mm 4 mps 757 mmHg 56%
    12:00 +29°C° 0 mm 3 mps 757 mmHg 52%
    13:00 +31°C° 0 mm 3 mps 756 mmHg 48%
    14:00 +31°C° 0 mm 3 mps 756 mmHg 48%
    15:00 +31°C° 0 mm 3 mps 756 mmHg 47%
    16:00 +31°C° 0 mm 3 mps 756 mmHg 46%
    17:00 +29°C° 0 mm 3 mps 755 mmHg 52%
    18:00 +28°C° 0 mm 3 mps 755 mmHg 57%
    19:00 +26°C° 0 mm 3 mps 755 mmHg 63%
    20:00 +25°C° 0.1 mm 3 mps 755 mmHg 65%
    21:00 +25°C° 0.1 mm 3 mps 756 mmHg 68%
    22:00 +24°C° 0.1 mm 3 mps 756 mmHg 71%
    23:00 +24°C° 0 mm 3 mps 756 mmHg 72%

    27 August, Tuesday

    Time Temperature Precipitation Wind Pressure Humidity
    00:00 +23°C° 0 mm 2 mps 756 mmHg 74%
    01:00 +23°C° 0 mm 2 mps 756 mmHg 76%
    02:00 +21°C° 0 mm 2 mps 756 mmHg 78%
    03:00 +21°C° 0 mm 2 mps 755 mmHg 80%
    04:00 +21°C° 0 mm 2 mps 755 mmHg 82%
    05:00 +23°C° 0 mm 2 mps 755 mmHg 80%
    06:00 +22°C° 0 mm 3 mps 755 mmHg 79%
    07:00 +24°C° 0 mm 3 mps 756 mmHg 77%
    08:00 +26°C° 0 mm 3 mps 756 mmHg 70%
    09:00 +28°C° 0 mm 3 mps 756 mmHg 63%
    10:00 +30°C° 0 mm 3 mps 756 mmHg 56%
    11:00 +31°C° 0 mm 3 mps 756 mmHg 52%
    12:00 +33°C° 0 mm 3 mps 756 mmHg 47%
    13:00 +34°C° 0 mm 4 mps 755 mmHg 43%
    14:00 +34°C° 0 mm 4 mps 755 mmHg 43%
    15:00 +34°C° 0 mm 4 mps 755 mmHg 42%
    16:00 +34°C° 0 mm 4 mps 754 mmHg 42%
    17:00 +31°C° 0 mm 3 mps 754 mmHg 47%
    18:00 +30°C° 0 mm 3 mps 754 mmHg 52%
    19:00 +28°C° 0 mm 3 mps 754 mmHg 56%
    20:00 +27°C° 0.2 mm 3 mps 755 mmHg 60%
    21:00 +26°C° 0.2 mm 3 mps 755 mmHg 63%
    22:00 +25°C° 0.2 mm 3 mps 755 mmHg 66%
    23:00 +25°C° 0.1 mm 3 mps 755 mmHg 67%

    28 August, Wednesday

    Time Temperature Precipitation Wind Pressure Humidity
    00:00 +25°C° 0.1 mm 3 mps 755 mmHg 69%
    01:00 +24°C° 0.1 mm 3 mps 755 mmHg 70%
    02:00 +24°C° 0.4 mm 3 mps 755 mmHg 72%
    03:00 +24°C° 0.4 mm 3 mps 754 mmHg 75%
    04:00 +22°C° 0.4 mm 3 mps 754 mmHg 78%
    05:00 +24°C° 0.3 mm 3 mps 754 mmHg 77%
    06:00 +24°C° 0.3 mm 3 mps 754 mmHg 76%
    07:00 +25°C° 0.3 mm 3 mps 754 mmHg 76%
    08:00 +26°C° 0 mm 3 mps 754 mmHg 71%
    09:00 +28°C° 0 mm 4 mps 754 mmHg 66%
    10:00 +29°C° 0 mm 4 mps 754 mmHg 61%
    11:00 +30°C° 0 mm 4 mps 754 mmHg 56%
    12:00 +32°C° 0 mm 4 mps 753 mmHg 51%
    13:00 +34°C° 0 mm 4 mps 753 mmHg 46%
    14:00 +34°C° 0 mm 4 mps 753 mmHg 44%
    15:00 +34°C° 0 mm 4 mps 752 mmHg 43%
    16:00 +34°C° 0 mm 4 mps 752 mmHg 41%
    17:00 +33°C° 0.1 mm 4 mps 752 mmHg 46%
    18:00 +30°C° 0.1 mm 3 mps 752 mmHg 50%
    19:00 +29°C° 0.1 mm 3 mps 751 mmHg 54%
    20:00 +28°C° 0.5 mm 3 mps 752 mmHg 58%
    21:00 +27°C° 0.5 mm 4 mps 752 mmHg 62%
    22:00 +26°C° 0.5 mm 4 mps 752 mmHg 66%
    23:00 +25°C° 0.1 mm 4 mps 752 mmHg 69%

    29 August, Thursday

    Time Temperature Precipitation Wind Pressure Humidity
    00:00 +25°C° 0.1 mm 4 mps 752 mmHg 72%
    01:00 +23°C° 0.1 mm 4 mps 752 mmHg 75%
    02:00 +23°C° 0 mm 4 mps 752 mmHg 76%
    03:00 +22°C° 0 mm 4 mps 751 mmHg 78%
    04:00 +22°C° 0 mm 4 mps 751 mmHg 80%
    05:00 +22°C° 0 mm 4 mps 751 mmHg 77%
    06:00 +23°C° 0 mm 4 mps 751 mmHg 74%
    07:00 +23°C° 0 mm 5 mps 751 mmHg 72%
    08:00 +26°C° 0 mm 5 mps 751 mmHg 66%
    09:00 +28°C° 0 mm 5 mps 751 mmHg 61%
    10:00 +29°C° 0 mm 5 mps 751 mmHg 56%
    11:00 +32°C° 0 mm 5 mps 751 mmHg 51%
    12:00 +33°C° 0 mm 4 mps 751 mmHg 45%
    13:00 +34°C° 0 mm 4 mps 751 mmHg 40%
    14:00 +34°C° 0 mm 4 mps 751 mmHg 39%
    15:00 +34°C° 0 mm 4 mps 751 mmHg 37%
    16:00 +35°C° 0 mm 4 mps 751 mmHg 36%
    17:00 +33°C° 0 mm 3 mps 751 mmHg 42%
    18:00 +30°C° 0 mm 3 mps 751 mmHg 48%
    19:00 +28°C° 0 mm 3 mps 751 mmHg 54%
    20:00 +27°C° 0.1 mm 3 mps 751 mmHg 57%
    21:00 +26°C° 0.1 mm 2 mps 751 mmHg 61%
    22:00 +25°C° 0.1 mm 2 mps 751 mmHg 64%
    23:00 +25°C° 0.6 mm 2 mps 751 mmHg 69%
    Show more